Probability
0 0 0 0 0 0 0 0 0 0 0 0 0 0 0 0 0 0 0 0 0 0 0 0 0 0 0 0 0 0 0 0 0 0 0 0 0 0 0 0 0 0 0 0
0 0 0 0 0 0 0 0 0 0 0 0 0 0 0 0 0 0 0 0 0 0 0 0 0 0 0 0 0 0 0 0 0 0 0 0 0 0 0 0 0 0 0 0
0 0 0 0 0 0 0 0 0 0 0 0 0 0 0 0 0 0 0 0 0 0 0 0 0 0 0 0 0 0 0 0 0 0 0 0 0 0 0 0 0 0 0 0
0 0 0 0 0 0 0 0 0 0 0 0 0 0 0 0 0 0 0 0 0 0 0 0 0 0 0 0 0 0 0 0 0 0 0 0 0 0 0 0 0 0 0 0
0 0 0 0 0 0 0 0 0 0 0 0 0 0 0 0 0 0 0 0 0 0 0 0 0 0 0 0 0 0 0 0 0 0 0 0 0 0 0 0 0 0 0 0
0 0 0 0 0 0 0 0 0 0 0 0 0 0 0 0 0 0 0 0 0 0 0 0 0 0 0 0 0 0 0 0 0 0 0 0 0 0 0 0 0 0 0 0
0 0 0 0 0 0 0 0 0 0 0 0 0 0 0 0 0 0 0 0 0 0 0 0 0 0 0 0 0 0 0 0 0 0 0 0 0 0 0 0 0 0 0 0
0 0 0 0 0 0 0 0 0 0 0 0 0 0 0 0 0 0 0 0 0 0 0 0 0 0 0 0 0 0 0 0 0 0 0 0 0 0 0 0 0 0 0 0
0 0 0 0 0 0 0 0 0 0 0 0 0 0 0 0 0 0 0 0 0 0 0 0 0 0 0 0 0 0 0 0 0 0 0 0 0 0 0 0 0 0 0 0
0 0 0 0 0 0 0 0 0 0 0 0 0 0 0 0 0 0 0 0 0 0 0 0 0 0 0 0 0 0 0 0 0 0 0 0 0 0 0 0 0 0 0 0
0 0 0 0 0 0 0 0 0 0 0 0 0 0 0 0 0 0 0 0 0 0 0 0 0 0 0 0 0 0 0 0 0 0 0 0 0 0 0 0 0 0 0 0
0 0 0 0 0 0 0 0 0 0 0 0 0 0 0 0 0 0 0 0 0 0 0 0 0 0 0 0 0 0 0 0 0 0 0 0 0 0 0 0 0 0 0 0
0 0 0 0 0 0 0 0 0 0 0 0 0 0 0 0 0 0 0 0 0 0 0 0 0 0 0 0 0 0 0 0 0 0 0 0 0 0 0 0 0 0 0 0
0 0 0 0 0 0 0 0 0 0 0 0 0 0 0 0 0 0 0 0 0 0 0 0 0 0 0 0 0 0 0 0 0 0 0 0 0 0 0 0 0 0 0 0
0 0 0 0 0 0 0 0 0 0 0 0 0 0 0 0 0 0 0 0 0 0 0 0 0 0 0 0 0 0 0 0 0 0 0 0 0 0 0 0 0 0 0 0
0 0 0 0 0 0 0 0 0 0 0 0 0 0 0 0 0 0 0 0 0 0 0 0 0 0 0 0 0 0 0 0 0 0 0 0 0 0 0 0 0 0 0 0
0 0 0 0 0 0 0 0 0 0 0 0 0 0 0 0 0 0 0 0 0 0 0 0 0 0 0 0 0 0 0 0 0 0 0 0 0 0 0 0 0 0 0 0
0 0 0 0 0 0 0 0 0 0 0 0 0 0 0 0 0 0 0 0 0 0 0 0 0 0 0 0 0 0 0 0 0 0 0 0 0 0 0 0 0 0 0 0
0 0 0 0 0 0 0 0 0 0 0 0 0 0 0 0 0 0 0 0 0 0 0 0 0 0 0 0 0 0 0 0 0 0 0 0 0 0 0 0 0 0 0 0
0 0 0 0 0 0 0 0 0 0 0 0 0 0 0 0 0 0 0 0 0 0 0 0 0 0 0 0 0 0 0 0 0 0 0 0 0 0 0 0 0 0 0 0
0 0 0 0 0 0 0 0 0 0 0 0 0 0 0 0 0 0 0 0 0 0 0 0 0 0 0 0 0 0 0 0 0 0 0 0 0 0 0 0 0 0 0 0
0 0 0 0 0 0 0 0 0 0 0 0 0 0 0 0 0 0 0 0 0 0 0 0 0 0 0 0 0 0 0 0 0 0 0 0 0 0 0 0 0 0 0 0
0 0 0 0 0 0 0 0 0 0 0 0 0 0 0 0 0 0 0 0 0 0 0 0 0 0 0 0 0 0 0 0 0 0 0 0 0 0 0 0 0 0 0 0
0 0 0 0 0 0 0 0 0 0 0 0 0 0 0 0 0 0 0 0 0 0 0 0 0 0 0 0 0 0 0 0 0 0 0 0 0 0 0 0 0 0 0 0
0 0 0 0 0 0 0 0 0 0 0 0 0 0 0 0 0 0 0 0 0 0 0 0 0 0 0 0 0 0 0 0 0 0 0 0 0 0 0 0 0 0 0 0
0 0 0 0 0 0 0 0 0 0 0 0 0 0 0 0 0 0 0 0 0 0 0 0 0 0 0 0 0 0 0 0 0 0 0 0 0 0 0 0 0 0 0 0
0 0 0 0 0 0 0 0 0 0 0 0 0 0 0 0 0 0 0 0 0 0 0 0 0 0 0 0 0 0 0 0 0 0 0 0 0 0 0 0 0 0 0 0
Wind_Speed
7 6 3 5 6 6 7 7 6 7 6 3 5 4 5 7 7 7 6 7 7 7 7 8 9 9 9 9 8 9 9 9 8 9 9 11 12 13 13 12 14 11 11 13
6 3 2 6 9 8 8 7 8 8 4 6 3 5 6 7 7 6 6 7 7 8 8 9 10 10 9 9 9 9 9 8 9 9 10 11 12 13 13 12 11 11 12 14
5 2 4 8 4 10 6 6 5 4 2 3 3 5 5 7 6 5 5 6 7 7 8 8 9 9 9 10 10 10 9 8 8 9 10 11 13 12 12 10 10 11 12 13
4 7 6 4 3 1 4 4 4 2 2 4 4 5 8 8 6 5 5 5 6 6 7 7 7 8 8 9 10 10 9 9 9 10 10 10 10 10 9 8 9 9 11 13
2 4 10 3 3 2 2 5 4 4 4 5 5 3 6 6 5 4 4 4 4 5 6 7 8 8 9 10 10 9 10 10 10 10 10 10 10 9 9 8 8 8 9 11
2 3 8 3 5 3 2 5 4 5 5 5 3 1 2 3 4 3 3 3 4 5 6 7 8 8 8 10 10 11 11 11 11 10 10 10 10 9 8 8 8 10 11 10
4 6 12 3 6 5 3 4 6 6 6 5 3 3 5 5 4 3 4 4 5 6 6 7 7 7 9 10 10 11 11 11 11 10 10 9 8 8 8 8 9 9 10 10
5 6 12 7 8 7 6 5 6 6 6 6 7 8 7 5 3 3 4 5 5 6 7 7 7 7 9 9 10 10 11 11 10 10 10 10 8 7 7 8 8 8 8 9
7 9 3 8 6 4 7 7 6 6 7 7 7 7 6 4 3 3 4 4 5 6 7 7 6 7 8 9 10 11 11 10 10 11 8 8 8 7 6 6 6 7 8 8
6 6 6 7 6 6 6 7 8 8 8 7 7 7 6 4 3 3 3 4 4 6 7 7 7 7 7 8 9 10 11 10 10 10 9 8 8 8 6 5 5 6 7 8
8 4 4 6 7 7 8 10 11 8 7 7 8 7 5 3 2 2 2 3 4 5 6 7 8 8 8 8 9 10 10 8 9 10 8 7 8 8 9 5 8 6 4 5
8 6 8 7 11 11 12 10 11 10 8 7 7 8 6 4 3 1 2 3 4 5 6 7 7 8 7 8 8 9 10 8 7 7 7 7 6 8 15 16 17 16 14 10
2 4 4 8 12 11 11 10 9 9 10 9 7 6 6 4 3 1 2 3 4 6 6 7 7 7 7 8 9 9 8 7 7 8 7 7 8 7 8 11 16 16 16 14
8 8 6 5 8 10 10 11 9 9 8 8 7 6 5 4 2 1 2 3 5 6 6 6 7 7 8 8 9 9 8 9 9 6 6 6 6 6 6 7 7 6 10 15
7 6 7 8 11 12 12 12 12 9 9 8 6 6 6 4 3 1 3 4 5 5 4 5 6 7 8 9 10 9 7 6 5 5 5 5 5 5 5 6 6 5 4 7
8 7 10 13 14 14 13 12 11 11 9 8 7 7 6 4 2 3 4 3 3 4 5 6 6 7 9 8 10 7 6 14 12 6 5 6 5 5 5 5 5 5 5 5
14 12 12 14 15 15 14 12 12 12 10 9 8 7 6 4 3 4 2 1 2 5 6 5 5 8 8 7 7 6 5 8 14 8 6 6 6 5 5 5 5 6 5 8
14 13 14 18 18 16 13 11 11 12 10 9 9 8 7 6 4 2 1 3 4 6 4 2 6 7 6 7 6 5 5 5 5 6 6 6 7 6 6 6 6 7 6 8
10 10 11 13 14 14 13 12 12 11 10 11 10 9 7 5 3 2 1 3 4 5 3 5 10 7 7 8 10 4 5 6 6 6 6 11 10 8 8 7 7 8 8 7
10 10 11 11 12 11 12 11 12 11 10 10 9 8 6 5 4 3 2 4 4 3 5 7 5 5 6 7 11 4 5 6 6 6 7 7 8 9 9 10 10 9 8 8
11 11 13 13 12 11 12 13 13 12 11 10 10 9 7 6 5 4 3 3 3 3 5 7 3 4 5 7 9 4 5 5 6 6 8 8 9 10 10 11 11 11 10 10
11 12 13 13 13 12 11 11 11 12 11 10 8 8 7 6 5 4 5 4 3 5 4 2 2 6 8 8 4 4 5 5 5 6 7 8 9 9 10 11 11 11 11 11
11 11 13 13 13 12 11 10 11 12 12 12 11 10 8 6 5 4 3 3 3 5 3 2 4 8 9 4 3 4 5 5 5 7 7 8 8 9 10 11 11 11 11 11
11 12 12 11 12 12 12 10 9 8 8 8 8 8 8 5 4 3 2 2 3 4 2 3 6 6 6 3 3 4 4 4 5 6 7 8 8 8 9 10 10 11 11 12
12 12 13 15 13 11 11 11 9 8 8 6 7 7 5 4 4 4 4 3 4 3 2 3 5 5 3 2 3 3 4 4 5 5 5 7 8 9 9 10 10 11 11 11
11 11 11 11 9 10 11 11 10 9 9 9 8 7 6 5 4 4 3 4 5 4 3 2 2 3 2 2 3 3 3 4 5 5 6 7 8 9 9 10 12 10 10 11
9 9 8 8 8 9 10 11 11 11 11 10 9 8 8 7 6 6 5 4 4 3 3 3 2 2 2 2 3 3 3 3 4 4 5 6 7 8 9 11 10 10 10 11
Wind_Direction
286 278 229 251 262 248 219 231 254 281 339 49 100 60 54 64 61 40 20 10 2 351 344 342 342 337 335 330 326 326 319 316 316 319 321 321 321 319 321 323 323 319 321 318
286 219 211 256 238 236 248 242 251 277 303 107 76 55 53 68 57 32 13 4 355 347 343 341 336 331 329 324 325 319 314 313 317 322 323 322 322 326 327 324 320 322 320 316
284 281 263 272 248 194 209 210 223 256 127 110 49 40 55 84 68 35 16 360 348 342 339 331 324 325 327 329 321 317 317 320 324 323 322 324 328 327 324 322 324 323 319 318
295 339 270 248 16 35 210 230 216 223 109 104 74 59 86 84 71 40 19 356 341 334 324 316 319 326 327 322 318 321 329 333 329 325 322 323 324 323 321 321 321 317 318 323
338 296 277 232 180 173 201 269 198 182 135 101 64 68 90 73 71 52 24 0 335 324 316 324 326 325 326 323 324 332 338 337 331 325 324 326 327 326 325 322 320 319 323 328
169 247 262 253 126 91 73 263 149 136 130 107 75 306 158 104 79 57 26 358 340 332 331 328 319 324 331 328 334 340 339 334 327 326 328 329 330 328 327 328 330 331 335 336
215 239 267 144 131 122 168 247 141 131 124 120 126 139 132 116 83 51 27 1 354 342 331 317 319 334 333 332 338 335 333 328 329 330 330 331 330 328 329 334 336 336 339 343
201 229 258 148 149 190 205 127 129 123 120 120 115 115 117 108 88 51 21 2 355 339 324 319 331 341 334 334 331 333 332 332 333 332 334 342 332 331 334 339 343 344 347 351
209 223 188 163 181 159 133 141 129 121 119 123 128 130 123 117 98 60 25 359 345 330 321 326 339 345 335 328 334 336 334 335 335 334 335 338 338 337 339 344 349 355 356 356
277 260 186 182 131 138 144 130 120 122 126 130 130 128 125 121 96 59 20 354 339 330 329 331 339 339 328 329 339 337 334 337 339 339 340 341 346 347 344 344 351 2 358 353
254 246 129 178 156 145 115 111 111 112 119 131 129 133 139 142 112 68 10 344 335 330 326 327 330 331 330 340 342 336 333 339 341 341 338 343 349 350 354 351 5 11 346 340
231 211 180 194 163 143 138 140 139 133 128 130 135 141 147 155 129 85 356 339 336 331 327 322 325 328 333 345 342 336 337 343 341 340 342 345 345 348 359 4 8 12 9 7
156 94 100 132 141 140 144 143 143 143 144 137 135 145 153 144 124 80 358 351 333 320 314 315 327 329 337 341 340 335 332 337 340 341 339 345 350 351 348 354 4 6 5 3
122 109 117 137 147 141 131 132 127 123 128 138 146 148 141 132 120 63 326 312 302 302 307 325 330 328 334 336 337 334 330 337 342 328 330 335 341 344 344 344 343 344 352 355
164 154 156 141 128 125 131 134 135 141 148 152 143 140 147 156 172 235 282 282 294 302 324 331 324 326 330 335 337 331 330 325 327 323 325 328 330 333 333 333 331 327 323 338
163 134 134 142 146 147 149 152 157 163 163 154 152 161 165 161 183 250 260 271 311 309 310 308 312 321 327 331 333 330 327 337 344 335 325 324 323 322 322 320 319 317 315 310
152 159 162 169 167 169 172 171 168 167 163 161 166 159 156 169 216 244 244 7 306 281 277 292 311 311 319 324 322 321 318 323 336 334 321 320 319 316 313 312 311 312 306 312
180 178 175 174 172 171 171 165 161 163 164 160 149 153 168 185 203 200 305 318 301 291 276 318 302 303 315 316 319 318 315 313 316 317 321 325 330 322 313 307 306 307 306 311
168 162 163 165 167 165 164 164 160 156 150 151 159 171 181 179 161 174 259 283 282 284 291 309 316 331 317 320 338 323 320 319 321 322 324 334 338 328 323 317 310 304 301 302
159 155 152 150 150 154 157 152 147 149 154 157 159 161 167 174 175 194 235 253 245 252 283 286 299 312 313 318 339 329 325 324 325 327 332 336 335 334 332 330 326 321 312 302
155 151 149 151 150 151 153 151 152 157 160 163 166 170 172 172 174 184 216 258 232 232 276 307 339 308 307 331 344 333 326 328 331 332 337 339 337 335 334 334 335 336 334 327
156 154 155 154 152 152 151 151 154 155 158 163 162 158 160 170 182 200 222 229 256 286 292 298 296 309 330 347 341 327 328 335 336 336 340 340 338 336 334 333 335 338 339 337
158 159 159 160 158 150 145 153 157 161 166 169 170 172 176 181 181 188 216 198 211 273 289 264 297 322 343 357 335 330 332 337 336 339 339 337 335 334 332 331 332 335 336 338
159 159 157 147 137 143 156 162 156 159 162 165 169 171 169 171 185 199 193 195 228 266 271 278 305 330 353 352 332 332 331 326 325 334 337 334 333 332 330 329 331 333 334 336
157 153 150 150 156 164 158 148 143 148 155 163 168 173 176 173 171 170 166 187 227 255 267 285 304 333 350 322 325 327 323 317 326 339 335 332 332 331 329 329 332 333 335 337
158 162 165 167 163 157 155 159 166 170 174 177 180 181 182 181 176 162 170 192 215 234 237 249 279 305 308 310 315 318 316 320 330 329 326 330 328 327 326 326 327 332 334 335
144 151 153 158 161 159 161 168 173 178 181 182 180 178 176 175 176 181 186 192 199 208 218 227 238 257 276 292 301 307 308 310 314 318 325 327 324 323 323 322 325 330 333 334